PROFILE

 METAR AND TAF INFORMATION
ADDS - METARS form results

(1233 UTC 26 March 2019)
http://aviationweather.gov/metar/data/
 
UAAA 261200Z 04005MPS 9999 SCT200 19/M00 Q1016 R88/65D NOSIG
TAF UAAA 261100Z 2612/2712 16003MPS 3100 BR FU FEW050 SCT100 TX20/2708Z TN05/2701Z TEMPO 2613/2622 20003MPS 1200 FM270400 02003MPS 9999 SCT050CB BKN100 TEMPO 2704/2712 06004MPS 

 AIRPORT MAP

 RUNWAY INFORMATION
Runway 05 Runway length 14427 ft Runway width 147 ft
Runway elevation 2224 ft Runway displaced threshold 0 ft Runway heading 56
Runway 23 Runway length 14427 ft Runway width 147 ft
Runway elevation 2234 ft Runway displaced threshold 0 ft Runway heading 236

 AIRPORT FREQUENCIES
Type APP Name APP Frequency 131.6 MHZ
Type ATIS Name ATIS Frequency 129.8 MHZ
Type GCA Name RADAR Frequency 120.8 MHZ
Type GND Name GND Frequency 121.7 MHZ
Type TWR Name TWR Frequency 119.4 MHZ

 AIRPORT NEAR NAVIGATION AIDS
Type NDB Name Almaty Frequency 443 KHZ
Type VOR-DME Name Almaty Frequency 112300 KHZ
Type NDB Name Almaty Frequency 415 KHZ